Location: Bonnesvalyn
(49.1218°N, 3.3177°E)
Time: 00:36:59
(UTC+00:00)

Gblst 52 Del rocket - Pass Details

Date: 09 February 2023
Orbit: 805 x 1364 km, 51.5° (Epoch: 21 March)

Event Time Altitude Azimuth Distance (km) Brightness Sun altitude
Rises 19:00:28 0° 282° (WNW) 3,392 8.8 -20.7°
Reaches altitude 10° 19:03:00 10° 284° (WNW) 2,421 7.7 -21.1°
Maximum altitude 19:08:33 74° 10° (N) 842 4.1 -22.0°
Enters shadow 19:09:58 50° 79° (E) 1,021 4.2 -22.2°
